Find Starlink 35155

NORAD ID: 65935 Int'l Des: 2025-225 Owner: SPXS Country: US Constellation: starlink operational
LEOCIRCULAR

Live-Position

3D-Globus wird geladen...

Über Starlink 35155

Beschreibung wird geladen...

Nächste Überflüge

Passes for default location (London). Set your location on the main map for personalized predictions.

Höhenverlauf

Loading altitude history...

Zweizeiliger Elementsatz

1 65935U 25225AB 26106.94914122 .00017819 00000-0 61206-3 0 9995
2 65935 53.1600 348.1183 0001504 90.6953 269.4220 15.30212495 29373
Epoch: 16. Apr. 2026 • Age: 21 hours

Aktueller Status

Höhe 478.0 km
Geschwindigkeit 7.63 km/s
Subsatellitenpunkt 40.61°N, 113°W
Startdatum 8. Okt. 2025
Alter 0.5 years
Typ internet

Technische Details

Klassifizierung Payload
Masse 575.00 kg
Trockenmasse 530.00 kg
Gesamtmasse 575.00 kg
Länge 0.30 m
Durchmesser 4.10 m
Spannweite 29.00 m
Form Box + pan
Hersteller SPXS
Bus-Typ Starlink V2MO
Phasenstatus In Orbit
Besitzer/Staat SPXS/US

Most Searched